Skip Page Navigation
NASA JPL Caltech
NASA Logo - Jet Propulsion Laboratory + View the NASA Portal
+ Center for Near-Earth Object Studies
JPL Home Earth Solar System Stars & Galaxies Technology
JPL Solar System Dynamics
BODIES ORBITS EPHEMERIDES TOOLS PHYSICAL DATA DISCOVERY FAQ SITE MAP
IMPORTANT: The SSD Announcement email list is now available. Major changes are coming in the near future, including possible hostname and/or URL changes. To be notified of such changes, subscribe to this email list.

Please visit this page for more details.


JPL Small-Body Database Browser
Search: [ help ]  
160801 (2000 UP90)
Classification: Main-belt Asteroid          SPK-ID: 2160801
Ephemeris | Orbit Diagram | Orbital Elements | Mission Design | Physical Parameters | Discovery Circumstances | Close-Approach Data ]

[ show orbit diagram ]
Orbital Elements at Epoch 2459000.5 (2020-May-31.0) TDB
Reference: JPL 16 (heliocentric ecliptic J2000)
 Element Value Uncertainty (1-sigma)   Units 
e .1880166925236211 5.5342e-08  
a 2.416504189198842 1.1001e-08 au
q 1.962161064076201 1.3199e-07 au
i 1.788848562195751 4.5128e-06 deg
node 302.4936440821154 0.00016946 deg
peri 112.0756143229563 0.00017012 deg
M 74.95036507821902 1.19e-05 deg
tp 2458714.838963774014
(2019-Aug-19.33896377)
4.5225e-05 TDB
period 1372.081015669932
3.76
9.3694e-06
2.565e-08
d
yr
n .2623751774775678 1.7916e-09 deg/d
Q 2.870847314321483 1.3069e-08 au
  Orbit Determination Parameters
   # obs. used (total)      753  
   data-arc span      7039 days (19.27 yr)  
   first obs. used      2000-10-24  
   last obs. used      2020-02-01  
   planetary ephem.      DE431  
   SB-pert. ephem.      SB431-N16  
   condition code      0  
   norm. resid. RMS      .5183  
   source      ORB  
   producer      Otto Matic  
   solution date      2020-Feb-24 13:25:21  

Additional Information
 Earth MOID = .974505 au 
 Jupiter MOID = 2.48575 au 
 T_jup = 3.491 
[ show covariance matrix ]

Ephemeris | Orbit Diagram | Orbital Elements | Mission Design | Physical Parameters | Discovery Circumstances | Close-Approach Data ]

Physical Parameter Table
Parameter Symbol Value Units Sigma Reference Notes
absolute magnitude H 16.2   n/a MPO359835  

160801 (2000 UP90)          Discovered 2000-Oct-24 by LINEAR at Socorro
Reference: 20070828/Numbers.arcLast Updated: 2007-08-30

[ show close-approach data ]
Ephemeris | Orbit Diagram | Orbital Elements | Mission Design | Physical Parameters | Discovery Circumstances | Close-Approach Data ]
ABOUT SSD CREDITS/AWARDS PRIVACY/COPYRIGHT GLOSSARY LINKS
FirstGov 2020-Feb-26 02:08 UT
(server date/time)  
NASA Home Page
Site Manager:   Ryan S. Park
Webmaster  Alan B. Chamberlin